When you browse on this site, cookies collect data to enhance your experience and personalize the content and advertising you see.
Visit our Privacy Policy to learn more. By continuing to use the site, you agree to this use of cookies and data.
  • In United Kingdom
  • List of Countries
  • For 7 days
  • Water Temperature
  • Satellite Maps
  • Weather Map
  • Weather Widgets
  • user-avatar
    Login

    Hourly Weather Pabna

    Today, 25 March, Monday

    Time Temperature Precipitation Wind Pressure Humidity
    00:00 +28°C° 0 mm 2 mps 755 mmHg 20%
    01:00 +27°C° 0 mm 2 mps 755 mmHg 22%
    02:00 +27°C° 0 mm 2 mps 755 mmHg 24%
    03:00 +26°C° 0 mm 2 mps 755 mmHg 26%
    04:00 +25°C° 0 mm 2 mps 755 mmHg 28%
    05:00 +25°C° 0 mm 2 mps 755 mmHg 31%
    06:00 +25°C° 0 mm 2 mps 755 mmHg 35%
    07:00 +28°C° 0 mm 2 mps 756 mmHg 31%
    08:00 +30°C° 0 mm 3 mps 756 mmHg 26%
    09:00 +34°C° 0 mm 3 mps 757 mmHg 21%
    10:00 +35°C° 0 mm 3 mps 756 mmHg 18%
    11:00 +37°C° 0 mm 3 mps 756 mmHg 14%
    12:00 +38°C° 0 mm 2 mps 756 mmHg 11%
    13:00 +39°C° 0 mm 2 mps 755 mmHg 10%
    14:00 +39°C° 0 mm 3 mps 755 mmHg 10%
    15:00 +40°C° 0 mm 3 mps 754 mmHg 10%
    16:00 +39°C° 0 mm 3 mps 754 mmHg 11%
    17:00 +38°C° 0 mm 2 mps 753 mmHg 13%
    18:00 +36°C° 0 mm 2 mps 753 mmHg 15%
    19:00 +35°C° 0 mm 2 mps 753 mmHg 16%
    20:00 +34°C° 0 mm 3 mps 754 mmHg 17%
    21:00 +33°C° 0 mm 3 mps 754 mmHg 18%
    22:00 +31°C° 0 mm 3 mps 754 mmHg 20%
    23:00 +31°C° 0 mm 2 mps 755 mmHg 22%

    Tomorrow, 26 March, Tuesday

    Time Temperature Precipitation Wind Pressure Humidity
    00:00 +30°C° 0 mm 2 mps 755 mmHg 23%
    01:00 +29°C° 0 mm 2 mps 755 mmHg 24%
    02:00 +29°C° 0 mm 2 mps 755 mmHg 25%
    03:00 +28°C° 0 mm 2 mps 755 mmHg 25%
    04:00 +27°C° 0 mm 2 mps 755 mmHg 30%
    05:00 +27°C° 0 mm 3 mps 755 mmHg 34%
    06:00 +26°C° 0 mm 3 mps 755 mmHg 39%
    07:00 +28°C° 0 mm 3 mps 755 mmHg 37%
    08:00 +31°C° 0 mm 3 mps 756 mmHg 36%
    09:00 +34°C° 0 mm 3 mps 757 mmHg 35%
    10:00 +35°C° 0 mm 3 mps 757 mmHg 30%
    11:00 +37°C° 0 mm 2 mps 756 mmHg 25%
    12:00 +39°C° 0 mm 2 mps 756 mmHg 19%
    13:00 +40°C° 0 mm 2 mps 755 mmHg 18%
    14:00 +40°C° 0 mm 3 mps 755 mmHg 17%
    15:00 +42°C° 0 mm 3 mps 754 mmHg 16%
    16:00 +39°C° 0.1 mm 3 mps 754 mmHg 18%
    17:00 +38°C° 0.1 mm 2 mps 753 mmHg 20%
    18:00 +37°C° 0.1 mm 2 mps 753 mmHg 23%
    19:00 +34°C° 0.3 mm 4 mps 754 mmHg 30%
    20:00 +32°C° 0.3 mm 7 mps 755 mmHg 38%
    21:00 +29°C° 0.3 mm 9 mps 756 mmHg 46%
    22:00 +31°C° 0.2 mm 8 mps 756 mmHg 43%
    23:00 +30°C° 0.2 mm 6 mps 756 mmHg 41%

    Day after tomorrow, 27 March, Wednesday

    Time Temperature Precipitation Wind Pressure Humidity
    00:00 +30°C° 0.2 mm 5 mps 756 mmHg 38%
    01:00 +29°C° 0.2 mm 4 mps 756 mmHg 41%
    02:00 +29°C° 0.2 mm 4 mps 755 mmHg 44%
    03:00 +28°C° 0.2 mm 3 mps 755 mmHg 46%
    04:00 +27°C° 0.1 mm 2 mps 756 mmHg 47%
    05:00 +27°C° 0.1 mm 2 mps 756 mmHg 48%
    06:00 +26°C° 0.1 mm 2 mps 756 mmHg 49%
    07:00 +28°C° 0.1 mm 2 mps 757 mmHg 45%
    08:00 +29°C° 0.1 mm 3 mps 758 mmHg 41%
    09:00 +31°C° 0.1 mm 3 mps 758 mmHg 37%
    10:00 +33°C° 0 mm 3 mps 758 mmHg 34%
    11:00 +34°C° 0 mm 3 mps 758 mmHg 31%
    12:00 +36°C° 0 mm 2 mps 757 mmHg 28%
    13:00 +36°C° 0 mm 2 mps 756 mmHg 26%
    14:00 +37°C° 0 mm 2 mps 755 mmHg 25%
    15:00 +37°C° 0 mm 1 mps 754 mmHg 23%
    16:00 +37°C° 0.2 mm 2 mps 754 mmHg 25%
    17:00 +36°C° 0.2 mm 2 mps 754 mmHg 28%
    18:00 +35°C° 0.2 mm 3 mps 754 mmHg 31%
    19:00 +33°C° 0.4 mm 3 mps 755 mmHg 36%
    20:00 +31°C° 0.4 mm 3 mps 755 mmHg 41%
    21:00 +29°C° 0.4 mm 3 mps 756 mmHg 46%
    22:00 +29°C° 0.4 mm 3 mps 756 mmHg 50%
    23:00 +28°C° 0.4 mm 4 mps 756 mmHg 53%

    28 March, Thursday

    Time Temperature Precipitation Wind Pressure Humidity
    00:00 +28°C° 0.4 mm 5 mps 756 mmHg 56%
    01:00 +27°C° 0 mm 4 mps 756 mmHg 58%
    02:00 +26°C° 0 mm 3 mps 756 mmHg 59%
    03:00 +26°C° 0 mm 2 mps 755 mmHg 60%
    04:00 +26°C° 0 mm 1 mps 756 mmHg 60%
    05:00 +26°C° 0 mm 1 mps 756 mmHg 60%
    06:00 +26°C° 0 mm 1 mps 756 mmHg 59%
    07:00 +27°C° 0 mm 1 mps 757 mmHg 53%
    08:00 +29°C° 0 mm 2 mps 758 mmHg 47%
    09:00 +30°C° 0 mm 2 mps 758 mmHg 40%
    10:00 +32°C° 0 mm 2 mps 758 mmHg 36%
    11:00 +34°C° 0 mm 3 mps 757 mmHg 32%
    12:00 +36°C° 0 mm 3 mps 757 mmHg 28%
    13:00 +36°C° 0 mm 3 mps 756 mmHg 27%
    14:00 +36°C° 0 mm 3 mps 755 mmHg 26%
    15:00 +37°C° 0 mm 3 mps 754 mmHg 25%
    16:00 +36°C° 0 mm 2 mps 754 mmHg 26%
    17:00 +36°C° 0 mm 2 mps 754 mmHg 27%
    18:00 +35°C° 0 mm 2 mps 753 mmHg 29%
    19:00 +34°C° 0 mm 2 mps 754 mmHg 31%
    20:00 +32°C° 0 mm 2 mps 754 mmHg 33%
    21:00 +31°C° 0 mm 2 mps 755 mmHg 35%
    22:00 +31°C° 0 mm 2 mps 755 mmHg 36%
    23:00 +30°C° 0 mm 2 mps 755 mmHg 37%

    29 March, Friday

    Time Temperature Precipitation Wind Pressure Humidity
    00:00 +30°C° 0 mm 2 mps 755 mmHg 38%
    01:00 +29°C° 0 mm 2 mps 754 mmHg 39%
    02:00 +29°C° 0 mm 2 mps 753 mmHg 41%
    03:00 +28°C° 0 mm 2 mps 753 mmHg 43%
    04:00 +28°C° 0 mm 2 mps 753 mmHg 45%
    05:00 +27°C° 0 mm 3 mps 753 mmHg 47%
    06:00 +27°C° 0 mm 3 mps 754 mmHg 49%
    07:00 +29°C° 0 mm 3 mps 754 mmHg 45%
    08:00 +31°C° 0 mm 3 mps 755 mmHg 40%
    09:00 +34°C° 0 mm 3 mps 756 mmHg 35%
    10:00 +36°C° 0 mm 3 mps 756 mmHg 31%
    11:00 +37°C° 0 mm 2 mps 755 mmHg 27%
    12:00 +38°C° 0 mm 2 mps 755 mmHg 23%
    13:00 +38°C° 0 mm 2 mps 754 mmHg 22%
    14:00 +39°C° 0 mm 2 mps 753 mmHg 20%
    15:00 +39°C° 0 mm 1 mps 752 mmHg 19%
    16:00 +39°C° 0 mm 1 mps 752 mmHg 20%
    17:00 +37°C° 0 mm 1 mps 752 mmHg 22%
    18:00 +37°C° 0 mm 1 mps 752 mmHg 23%
    19:00 +37°C° 0 mm 2 mps 752 mmHg 24%
    20:00 +36°C° 0 mm 2 mps 753 mmHg 26%
    21:00 +35°C° 0 mm 2 mps 753 mmHg 27%
    22:00 +34°C° 0 mm 2 mps 753 mmHg 30%
    23:00 +33°C° 0 mm 3 mps 753 mmHg 34%

    30 March, Saturday

    Time Temperature Precipitation Wind Pressure Humidity
    00:00 +32°C° 0 mm 4 mps 753 mmHg 37%
    01:00 +30°C° 0 mm 4 mps 753 mmHg 42%
    02:00 +30°C° 0 mm 4 mps 753 mmHg 48%
    03:00 +29°C° 0 mm 4 mps 753 mmHg 53%
    04:00 +28°C° 0 mm 3 mps 753 mmHg 59%
    05:00 +28°C° 0 mm 3 mps 753 mmHg 64%
    06:00 +27°C° 0 mm 3 mps 754 mmHg 69%
    07:00 +29°C° 0 mm 3 mps 754 mmHg 63%
    08:00 +31°C° 0 mm 3 mps 755 mmHg 57%
    09:00 +33°C° 0 mm 3 mps 756 mmHg 51%
    10:00 +35°C° 0 mm 3 mps 755 mmHg 44%
    11:00 +37°C° 0 mm 3 mps 755 mmHg 38%
    12:00 +38°C° 0 mm 4 mps 755 mmHg 31%
    13:00 +38°C° 0 mm 4 mps 754 mmHg 30%
    14:00 +38°C° 0 mm 3 mps 753 mmHg 30%
    15:00 +38°C° 0 mm 3 mps 752 mmHg 29%
    16:00 +38°C° 0 mm 3 mps 752 mmHg 30%
    17:00 +37°C° 0 mm 3 mps 752 mmHg 32%
    18:00 +37°C° 0 mm 3 mps 752 mmHg 33%
    19:00 +36°C° 0 mm 4 mps 752 mmHg 36%
    20:00 +34°C° 0 mm 5 mps 753 mmHg 40%
    21:00 +33°C° 0 mm 6 mps 754 mmHg 43%
    22:00 +33°C° 0 mm 6 mps 754 mmHg 46%
    23:00 +32°C° 0 mm 5 mps 754 mmHg 50%
    Show more